Regional Weather Roundup
Issued by NWS

Home | Current Version | Previous Version | Graphics & Text | Print | Product List | Glossary On
Versions: 1 2 3 4 5 6 7 8 9 10 11 12 13 14 15 16 17 18 19 20 21 22 23 24 25 26 27 28 29 30 31 32 33 34 35 36 37 38 39 40 41 42 43 44 45 46 47 48 49 50
329
ASUS43 KBIS 221331
RWRND
NORTH DAKOTA REGIONAL WEATHER ROUNDUP
NATIONAL WEATHER SERVICE EASTERN NORTH DAKOTA/GRAND FORKS ND
800 AM CDT SUN APR 22 2018

  NOTE: "FAIR" INDICATES FEW OR NO CLOUDS BELOW 12,000 FEET WITH NO
  SIGNIFICANT WEATHER AND/OR OBSTRUCTIONS TO VISIBILITY.

NDZ001>003-009>011-017-221400-
...NORTHWEST NORTH DAKOTA...

CITY           SKY/WX    TMP DP  RH WIND       PRES   REMARKS
WILLISTON      FAIR      42  30  62 CALM      30.12R
MINOT          FAIR      42  36  79 SW13      30.09R
MINOT AFB      FAIR      42  37  82 W12       30.08R
$$

NDZ018>021-031>035-040>046-221400-
...SOUTHWEST NORTH DAKOTA...

CITY           SKY/WX    TMP DP  RH WIND       PRES   REMARKS
BISMARCK       FAIR      39  35  86 CALM      30.18R
DICKINSON      FAIR      36  35  96 W3        30.11R
GARRISON         N/A     37  35  92 S8        30.12R WCI  31
HETTINGER      FAIR      33  31  92 CALM      30.14S
$$

NDZ004>008-012>016-024-026-027-054-221400-
...NORTHEAST NORTH DAKOTA...

CITY           SKY/WX    TMP DP  RH WIND       PRES   REMARKS
GRAND FORKS    PTSUNNY   37  36  96 S10       30.23R WCI  30
GRAND FORKS AF FAIR      41  36  81 S10       30.22R
DEVILS LAKE    FAIR      42  32  67 S17       30.15F
$$

NDZ022-023-025-028>030-036>039-047>053-221400-
...SOUTHEAST NORTH DAKOTA...

CITY           SKY/WX    TMP DP  RH WIND       PRES   REMARKS
JAMESTOWN      FAIR      37  34  89 S12       30.22R WCI  29
FARGO          FAIR      40  33  76 S8        30.27R WCI  34
WAHPETON       FAIR      37  32  81 SE9       30.29F WCI  31
$$




USA.gov is the U.S. government's official web portal to all federal, state and local government web resources and services.